Location: Unspecified
(0.0000°N, 0.0000°E)
Time: 19:46:59
(UTC+00:00)

Altair - Pass Details

Date: 21 November 2019
Orbit: 1501 x 1682 km, 47.2° (Epoch: 10 August)

Event Time Altitude Azimuth Distance (km) Brightness Sun altitude
Rises 22:26:17 0° 212° (SSW) 4,831 10.5 -62.1°
Reaches altitude 10° 22:29:31 10° 209° (SSW) 3,819 9.8 -62.6°
Enters shadow 22:30:12 13° 208° (SSW) 3,611 9.7 -62.7°
Maximum altitude 22:39:02 61° 130° (SE) 1,728 - -64.1°
Drops below altitude 10° 22:48:09 10° 51° (NE) 3,679 - -65.5°
Sets 22:51:11 0° 48° (NE) 4,644 - -65.9°
